Location: Bailleul
(50.3375°N, 2.8513°E)
Time: 13:27:52
(UTC+00:00)

Spot 2 Rocket - Pass Details

Date: 16 June 2021
Orbit: 757 x 772 km, 98.5° (Epoch: 30 July)

Event Time Altitude Azimuth Distance (km) Brightness Sun altitude
Exits shadow 21:17:51 - 176° (S) 2,543 5.7 -9.0°
Reaches altitude 10° 21:18:30 10° 177° (S) 2,290 5.5 -9.1°
Maximum altitude 21:23:30 61° 258° (WSW) 864 3.9 -9.5°
Drops below altitude 10° 21:28:33 10° 339° (NNW) 2,316 7.5 -10.0°
Sets 21:30:54 0° 343° (NNW) 3,249 8.5 -10.2°
